Location: Lake Almanor
(40.2485°N, 121.1442°W)
Time: 02:54:41
(UTC-08:00)

FALCON 9 DEB - Pass Details

Date: 30 January 2020
Orbit: 248 x 258 km, 53.0° (Epoch: 17 February)

Event Time Altitude Azimuth Distance (km) Brightness Sun altitude
Rises 18:49:36 0° 311° (NW) 1,950 ? -17.2°
Reaches altitude 10° 18:51:32 10° 315° (NW) 1,137 ? -17.5°
Enters shadow 18:53:20 40° 331° (NNW) 445 ? -17.9°
